[[{"header":{"parameterUnit":"m.s-1","parameterCategory":1,"la1":30.2991,"la2":30.254,"lo1":-89.0895,"lo2":-89.0444,"dy":0.0017,"dx":0.0017,"nx":28,"ny":28,"refTime":"2023-10-26T03:00:00:Z","depth":0,"parameterNumber":2,"parameterNumberName":"U-component_of_WINDS"},"data":[0,0,0,0,0,0,0,0,0,0,0,0,0,0,0,0,0,0,0,0,0,0,0,0,0,0,0,0,0,0,0,0,0,0,0,0,0,0,0,0,0,0,0,0,0,0,0,0,0,0,0,0,0,0,0,0,0,0,-2.8955,-2.8957,0,-2.9089,-2.909,-2.9092,-2.9073,-2.907,-2.9068,-2.9066,-2.9211,-2.9216,-2.9222,0,0,0,0,0,0,0,0,0,0,0,0,0,-2.8692,-2.8697,-2.8955,-2.8957,-2.8958,-2.9089,-2.909,-2.9092,-2.9073,-2.907,-2.9068,-2.9065,-2.9209,-2.9216,-2.9223,0,0,0,0,0,0,0,0,0,0,0,0,0,-2.8814,-2.8699,-2.8955,-2.8964,-2.8966,-2.9088,-2.9091,-2.9093,-2.9074,-2.907,-2.9067,-2.9064,-2.9206,-2.9215,-2.9224,-2.9347,0,0,-2.9251,-2.9255,0,0,0,0,0,0,0,0,-2.8807,-2.8824,-2.8961,-2.8964,-2.8966,-2.906,-2.9051,-2.9178,-2.9074,-2.9033,-2.9066,-2.9062,-2.9164,-2.9176,-2.9209,-2.9354,-2.936,-2.9252,-2.9257,-2.9261,-2.9264,0,0,0,0,0,0,0,-2.8799,-2.8818,-2.9008,-2.8963,-2.8966,-2.8965,-2.8978,-2.9075,-2.9116,-2.9037,-2.9035,-2.9051,-2.9165,-2.92,-2.9212,-2.9362,-2.9252,-2.926,-2.9265,-2.9269,-2.9618,-2.9622,0,0,0,0,0,0,-2.8787,-2.8811,-2.9004,-2.9012,-2.8877,-2.8972,-2.8988,-2.9034,-2.9115,-2.9124,-2.9054,-2.905,-2.9187,-2.9202,-2.9217,-2.9368,-2.9261,-2.927,-2.9275,-2.9614,-2.9619,-2.9623,0,0,0,0,0,0,-2.8781,-2.8804,-2.8999,-2.8912,-2.8936,-2.898,-2.9033,-2.9038,-2.9074,-2.9128,-2.9136,-2.9082,-2.9185,-2.9205,-2.9315,-2.9372,-2.9274,-2.9282,-2.9609,-2.9616,-2.9621,-2.9669,0,0,0,0,0,0,-2.8774,-2.8802,-2.8847,-2.8912,-2.8941,-2.9091,-2.9036,-2.9043,-2.9088,-2.9084,-2.9157,-2.9165,-2.9184,-2.9302,-2.9324,-2.9383,-2.9289,-2.9604,-2.9612,-2.9619,-2.9662,-2.9676,-2.9687,0,0,0,0,0,-2.8764,-2.8856,-2.8849,-2.8873,-2.8997,-2.9094,-2.9111,-2.9128,-2.9093,-2.914,-2.9175,-2.9163,-2.9363,-2.9313,-2.9338,-2.9401,-2.9601,-2.961,-2.9619,-2.9657,-2.9673,-2.9687,0,0,0,0,0,0,-2.8798,-2.8865,-2.8858,-2.8973,-2.9028,-2.9091,-2.915,-2.9144,-2.9212,-2.9205,-2.9226,-2.9243,-2.9354,-2.9389,-2.9332,-2.9526,-2.9478,-2.9492,-2.9498,-2.9514,-2.9526,-2.9515,-2.9296,0,0,0,0,0,-2.8819,-2.8889,-2.8945,-2.9042,-2.907,-2.9105,-2.9148,-2.9157,-2.9215,-2.9239,-2.9283,-2.9342,-2.9419,-2.9469,-2.9542,-2.9668,-2.9685,-2.9724,-2.9736,-2.9746,-2.9758,-2.9829,-2.9847,-2.9652,-2.9652,-2.9652,0,0,-2.8863,-2.8908,-2.8951,-2.905,-2.9093,-2.9169,-2.9125,-2.9206,-2.9263,-2.9252,-2.9358,-2.9393,-2.9462,-2.9581,-2.9635,-2.9613,-2.9816,-2.9757,-2.9765,-2.9771,-2.984,-2.9859,-2.9875,-2.9658,-2.9657,-2.9656,0,0,-2.8981,-2.9021,-2.9106,-2.9151,-2.9217,-2.9241,-2.9261,-2.9326,-2.9348,-2.9454,-2.9448,-2.9519,-2.9649,-2.9698,-2.9741,-2.9881,-2.9873,-2.9905,-2.9969,-3.0038,-3.0053,-3.0067,-3.0118,-3.0136,-2.9917,-2.9917,-2.9917,0,-2.9027,-2.9137,-2.9152,-2.9234,-2.9279,-2.9271,-2.9359,-2.9403,-2.9491,-2.9523,-2.9496,-2.9661,-2.9707,-2.9838,-2.9872,-2.9907,-2.9933,-2.9895,-3.0049,-3.0064,-3.0077,-3.0125,-3.0144,-2.992,-2.992,-2.9919,-2.9919,0,-2.9192,-2.9269,-2.9331,-2.9413,-2.9465,-2.955,-2.9581,-2.9632,-2.9638,-2.9665,-2.9776,-2.9831,-2.9915,-2.9948,-2.9954,-3.0081,-3.0065,-3.0044,-2.9996,-3.0098,-3.0144,-3.0163,-2.9925,-2.9924,-2.9923,-2.9922,0,0,-2.9333,-2.9423,-2.9445,-2.9483,-2.9557,-2.9618,-2.9705,-2.9786,-2.983,-2.9893,-2.9967,-3.0079,-3.0061,-3.0109,-3.0121,-3.0182,-3.0291,-3.0154,-3.0156,-3.0178,-3.0436,-3.0451,-3.0472,-3.0287,-3.0291,-3.0294,-3.0431,0,-2.9458,-2.9606,-2.9623,-2.9758,-2.983,-2.9826,-2.9902,-2.9957,-2.9986,-3.0055,-3.0089,-3.0168,-3.0137,-3.0166,-3.0226,-3.0265,-3.0343,-3.0256,-3.0359,-3.0362,-3.034,-3.0496,-3.0511,-3.0638,-3.0449,-3.0452,-3.0454,0,-2.9622,-2.9686,-2.9827,-2.9892,-2.9923,-2.999,-3.0067,-3.0132,-3.0196,-3.0214,-3.0269,-3.0274,-3.0367,-3.0317,-3.0447,-3.0387,-3.0431,-3.0457,-3.0462,-3.0471,-3.0413,-3.0509,-3.0678,-3.0697,-3.0483,-3.048,-3.0478,0,-2.971,-2.9833,-2.9933,-2.9966,-3.0044,-3.0092,-3.0127,-3.0188,-3.0236,-3.0305,-3.0337,-3.0417,-3.046,-3.0524,-3.0552,-3.0512,-3.0681,-3.0632,-3.07,-3.0699,-3.0734,-3.0731,-3.0912,-3.0764,-3.0764,-3.0763,-3.0763,0,-2.9847,-2.9933,-2.9973,-3.0035,-3.0133,-3.0154,-3.0251,-3.0286,-3.034,-3.0411,-3.0414,-3.0481,-3.0514,-3.0588,-3.0611,-3.0716,-3.0736,-3.0755,-3.076,-3.0754,-3.0751,-3.0782,-3.0773,-3.0768,-3.0767,-3.0766,-3.0765,0,-2.9961,-2.9991,-3.01,-3.0165,-3.0184,-3.0254,-3.0311,-3.0373,-3.0402,-3.0492,-3.0515,-3.0562,-3.0649,-3.0683,-3.079,-3.0806,-3.0927,-3.0926,-3.0904,-3.0905,-3.0971,-3.0964,-3.1177,-3.1206,-3.1039,-3.1041,-3.1042,0,-3.0046,-3.0112,-3.0184,-3.023,-3.0266,-3.0341,-3.039,-3.0415,-3.0467,-3.0546,-3.0599,-3.0685,-3.0755,-3.0895,-3.0941,-3.1023,-3.1024,-3.1093,-3.1036,-3.1029,-3.1025,-3.102,-3.1027,-3.1102,-3.1104,-3.1106,-3.1107,0,-3.0193,-3.0205,-3.0273,-3.0349,-3.0406,-3.0468,-3.0527,-3.0566,-3.0601,-3.066,-3.0747,-3.0801,-3.091,-3.0996,-3.1082,-3.1122,-3.1122,-3.1124,-3.1144,-3.1138,-3.1123,-3.1132,-3.0932,-3.1119,-3.1118,-3.1117,-3.1116,-3.1116,-3.0295,-3.0354,-3.0414,-3.0491,-3.0539,-3.0595,-3.0656,-3.0693,-3.0765,-3.0853,-3.0865,-3.0959,-3.1026,-3.114,-3.1184,-3.1261,-3.1243,-3.1272,-3.1279,-3.1286,-3.129,-3.1112,-3.1277,-3.1276,-3.1276,-3.1276,-3.1276,0,-3.0442,-3.0481,-3.0552,-3.0634,-3.0696,-3.0688,-3.0755,-3.0808,-3.0889,-3.095,-3.1018,-3.112,-3.1205,-3.1258,-3.1344,-3.1395,-3.1397,-3.1417,-3.1413,-3.1423,-3.1301,-3.1274,-3.1414,-3.1414,-3.1414,-3.1414,-3.1414,-3.1414,-3.0526,-3.0625,-3.0645,-3.0769,-3.0808,-3.0898,-3.0937,-3.099,-3.1038,-3.1151,-3.122,-3.1253,-3.1313,-3.1403,-3.1481,-3.1495,-3.1527,-3.1548,-3.1561,-3.1445,-3.1431,-3.1417,-3.1393,-3.1555,-3.1555,-3.1676,-3.1678,-3.1678]},{"header":{"parameterUnit":"m.s-1","parameterCategory":1,"la1":30.2991,"la2":30.254,"lo1":-89.0895,"lo2":-89.0444,"dy":0.0017,"dx":0.0017,"nx":28,"ny":28,"refTime":"2023-10-26T03:00:00:Z","depth":0,"parameterNumber":3,"parameterNumberName":"V-component_of_WINDS"},"data":[0,0,0,0,0,0,0,0,0,0,0,0,0,0,0,0,0,0,0,0,0,0,0,0,0,0,0,0,0,0,0,0,0,0,0,0,0,0,0,0,0,0,0,0,0,0,0,0,0,0,0,0,0,0,0,0,0,0,1.9638,1.9638,0,1.955,1.9549,1.9548,1.9451,1.9449,1.9448,1.9447,1.9359,1.9358,1.9357,0,0,0,0,0,0,0,0,0,0,0,0,0,1.9728,1.9727,1.9639,1.9637,1.9636,1.955,1.9549,1.9548,1.9451,1.9449,1.9448,1.9446,1.9359,1.9358,1.9357,0,0,0,0,0,0,0,0,0,0,0,0,0,1.967,1.9727,1.9639,1.9578,1.9571,1.955,1.9549,1.9547,1.9451,1.9449,1.9447,1.9445,1.9359,1.9358,1.9356,1.9389,0,0,1.9352,1.9351,0,0,0,0,0,0,0,0,1.9673,1.9666,1.9588,1.9582,1.9575,1.9509,1.9548,1.9495,1.9452,1.9497,1.9447,1.9444,1.9411,1.9405,1.9393,1.9385,1.9382,1.9352,1.9351,1.935,1.935,0,0,0,0,0,0,0,1.9677,1.967,1.9604,1.9587,1.9579,1.9556,1.9545,1.9538,1.9467,1.9493,1.9486,1.9476,1.9407,1.9395,1.939,1.938,1.9352,1.935,1.9349,1.9349,1.9398,1.94,0,0,0,0,0,0,1.969,1.9674,1.9606,1.9601,1.962,1.9556,1.9544,1.9532,1.9467,1.9455,1.9478,1.9472,1.9398,1.9392,1.9387,1.9422,1.935,1.9349,1.9348,1.9396,1.9398,1.9401,0,0,0,0,0,0,1.9692,1.9685,1.961,1.9635,1.9624,1.9557,1.9544,1.9532,1.9519,1.9456,1.9443,1.9479,1.9396,1.9389,1.939,1.9417,1.9348,1.9347,1.9393,1.9396,1.94,1.9492,0,0,0,0,0,0,1.9695,1.9686,1.9697,1.9636,1.9623,1.9613,1.9546,1.9532,1.9517,1.9508,1.9453,1.9441,1.9394,1.9393,1.9388,1.9414,1.9345,1.939,1.9395,1.9399,1.9486,1.9498,1.9508,0,0,0,0,0,1.9699,1.9726,1.9698,1.969,1.9635,1.9615,1.9608,1.9552,1.9519,1.953,1.949,1.9443,1.9416,1.9394,1.9388,1.9413,1.9388,1.9393,1.9398,1.9481,1.9496,1.9508,0,0,0,0,0,0,1.9792,1.9717,1.9685,1.9693,1.9661,1.9599,1.961,1.9569,1.9546,1.9539,1.9472,1.946,1.9469,1.9442,1.9418,1.9443,1.9395,1.94,1.946,1.9474,1.9484,1.949,1.9344,0,0,0,0,0,1.9814,1.9803,1.9739,1.9753,1.9738,1.9678,1.9667,1.9627,1.9591,1.9578,1.9537,1.9505,1.9489,1.948,1.9462,1.9483,1.947,1.9498,1.9509,1.9518,1.9522,1.9532,1.9544,1.9417,1.9417,1.9417,0,0,1.9858,1.9816,1.9813,1.977,1.974,1.9732,1.9666,1.966,1.9654,1.9577,1.9575,1.9545,1.9505,1.9516,1.9519,1.9494,1.9555,1.9525,1.9533,1.9531,1.9539,1.9551,1.9562,1.9421,1.942,1.9419,0,0,1.9934,1.9901,1.9909,1.9881,1.9838,1.9798,1.98,1.9745,1.9721,1.9719,1.9661,1.9654,1.9628,1.9602,1.9586,1.9657,1.9614,1.9653,1.971,1.9721,1.9731,1.974,1.9765,1.9775,1.9658,1.9658,1.9658,0,1.9994,1.9978,1.9919,1.9916,1.99,1.9831,1.984,1.9816,1.977,1.9761,1.9733,1.97,1.9668,1.9673,1.9691,1.968,1.9682,1.9658,1.9734,1.9742,1.9749,1.9773,1.9783,1.9663,1.9662,1.9662,1.9661,0,2.0055,2.0045,2.0058,2.0014,1.9999,2.0003,1.9946,1.9939,1.9902,1.9865,1.9865,1.9825,1.9799,1.9798,1.9761,1.9798,1.9784,1.9747,1.9697,1.9768,1.9789,1.9797,1.967,1.9668,1.9667,1.9666,0,0,2.0184,2.011,2.0115,2.0095,2.0044,2.0035,2.0038,2.0011,2.0007,1.9978,1.9979,1.996,1.9926,1.9908,1.9868,1.9878,1.9938,1.9839,1.9837,1.9859,1.9978,2.0005,2.0017,1.991,1.9911,1.9913,1.9981,0,2.025,2.0247,2.0195,2.0207,2.0199,2.0135,2.0137,2.0107,2.0074,2.0063,2.0027,2.0015,1.9971,1.996,1.9967,1.9929,1.9961,1.9924,1.991,1.9911,1.9921,2.0028,2.0056,2.0122,1.9989,1.999,1.9991,0,2.0326,2.0302,2.0313,2.0263,2.0257,2.026,2.0233,2.0223,2.0189,2.0164,2.0146,2.0102,2.0102,2.0057,2.0058,2.0034,2.0026,2.0007,2.0009,2.0004,1.9954,2.0025,2.0142,2.0152,2.0004,2.0003,2.0002,0,2.0419,2.0389,2.0392,2.0378,2.0319,2.0323,2.0299,2.0263,2.0251,2.0229,2.0221,2.0199,2.0187,2.0173,2.0125,2.0096,2.0131,2.0082,2.0112,2.0113,2.012,2.012,2.0237,2.0118,2.0118,2.0117,2.0117,0,2.0497,2.0506,2.0433,2.0435,2.0445,2.0387,2.0399,2.0369,2.0338,2.0335,2.0279,2.0278,2.0215,2.0207,2.017,2.0177,2.0172,2.0153,2.0143,2.0157,2.016,2.015,2.0144,2.012,2.0119,2.0119,2.0118,0,2.0601,2.0552,2.0551,2.0498,2.0484,2.0494,2.0448,2.0449,2.0415,2.0411,2.0407,2.0353,2.0341,2.0292,2.0269,2.0244,2.0263,2.0244,2.0274,2.0267,2.03,2.0298,2.0413,2.0426,2.03,2.0302,2.0303,0,2.0653,2.0659,2.0606,2.0599,2.0578,2.0568,2.0556,2.0502,2.0492,2.0455,2.0461,2.0444,2.0428,2.0412,2.0372,2.0354,2.0334,2.0376,2.033,2.0345,2.0334,2.0334,2.0335,2.0385,2.0386,2.0388,2.0389,0,2.0752,2.0728,2.0712,2.0689,2.0677,2.0656,2.0632,2.0631,2.057,2.0562,2.0549,2.0537,2.0513,2.0498,2.0475,2.0452,2.0411,2.0404,2.041,2.0424,2.0441,2.0432,2.03,2.0401,2.04,2.0399,2.0398,2.0398,2.0831,2.0833,2.0797,2.0782,2.0759,2.0739,2.0737,2.0703,2.0691,2.0667,2.0636,2.0627,2.0596,2.056,2.0541,2.0535,2.0512,2.052,2.0522,2.0525,2.0532,2.0444,2.053,2.053,2.053,2.0529,2.0529,0,2.0926,2.09,2.0887,2.0856,2.0845,2.0808,2.0781,2.0775,2.0767,2.0741,2.0727,2.0713,2.0699,2.0659,2.0641,2.0644,2.0625,2.0642,2.064,2.0636,2.0554,2.055,2.0657,2.0657,2.0657,2.0657,2.0657,2.0657,2.0974,2.0977,2.095,2.0942,2.0916,2.0906,2.0894,2.0877,2.0855,2.0842,2.083,2.0804,2.0773,2.0754,2.074,2.0729,2.0725,2.0747,2.073,2.0654,2.0641,2.063,2.0626,2.0747,2.0747,2.0812,2.0813,2.0813]}]]